Regional Weather Roundup
Issued by NWS

Home | Current Version | Previous Version | Text Only | Print | Product List | Glossary Off
Versions: 1 2 3 4 5 6 7 8 9 10 11 12 13 14 15 16 17 18 19 20 21 22 23 24 25 26 27 28 29 30 31 32 33 34 35 36 37 38 39 40 41 42 43 44 45 46 47 48 49 50

000
ASUS45 KSLC 281910
RWRUT

UTAH REGIONAL WEATHER ROUNDUP
NATIONAL WEATHER SERVICE SALT LAKE CITY UT
1200 PM MST SUN DEC 28 2014

UTZ001>011-023>025-282000-

NORTHERN UTAH

CITY           SKY/WX    TMP DP  RH WIND       PRES   REMARKS
BRIGHAM CITY   CLOUDY    30  22  74 CALM      30.06F
HILL AFB       LGT SNOW  27  25  93 S8        30.06F FOG     WCI  18
LOGAN          CLOUDY    29  22  75 S12       30.04S WCI  19
OGDEN          CLOUDY    28  24  85 S8        30.07F WCI  20
PROVO AIRPORT  PTSUNNY   28  18  64 CALM      30.07F
SALT LAKE CITY FLURRIES  32  19  58 N5        30.08R WCI  27
VERNAL         SUNNY     22  11  62 SE3       30.04F
WENDOVER       CLOUDY    30  19  64 E18       30.07S WCI  18
HEBER CITY     LGT SNOW  23  19  86 CALM      30.01F
WEST JORDAN    CLOUDY    30  19  64 S18       30.07R WCI  18

$$

UTZ012>022-026-027-282000-

SOUTHERN/CENTRAL UTAH

CITY           SKY/WX    TMP DP  RH WIND       PRES   REMARKS
BLANDING       MOSUNNY   25  12  58 SE5       30.21F WCI  19
BRYCE CANYON   SUNNY     33  11  39 W9G17     30.06F WCI  25
CEDAR CITY     SUNNY     30  13  49 CALM      30.10F
DELTA          SUNNY     30  16  56 S9        30.09F WCI  22
MILFORD        SUNNY     29  14  53 SW18      30.10F WCI  16
MOAB/CYNLANDS  SUNNY     21  16  81 NW10      30.12F WCI  10
PRICE          PTSUNNY   26   8  46 SE7       30.07F WCI  18
ST GEORGE      MOCLDY    34  10  37 SW3       30.27F
KANAB          SUNNY     32  12  43 S9        30.20F WCI  24

$$

REGIONAL REPORTS     COLORADO/ARIZONA

CITY           SKY/WX    TMP DP  RH WIND       PRES   REMARKS
CRAIG, CO      SNOW      20  15  81 CALM      29.99F VSB 1/2
GRAND JUNCTION CLOUDY    28  12  51 E3        30.12F
RIFLE          CLOUDY    19  12  74 NE3       30.10F
MONTROSE       MOSUNNY   28   8  43 NW5       30.09F WCI  23
CORTEZ         MOSUNNY   26  10  50 MISG      30.14F
PAGE, AZ       SUNNY     34   9  35 W3        30.16F
GRAND CANYON   PTSUNNY   31   7  36 W9        30.16F WCI  23
KINGMAN        CLOUDY    41  14  33 N6        30.23F
FLAGSTAFF      PTSUNNY   36   0  21 SW10      30.14F WCI  28

$$

REGIONAL REPORTS    NEVADA/IDAHO/WYOMING

CITY           SKY/WX    TMP DP  RH WIND       PRES   REMARKS
LAS VEGAS, NV  CLOUDY    41  11  29 CALM      30.23F
ELY            SUNNY     37  19  48 W8        30.10F WCI  31
ELKO           CLOUDY    37  23  56 W15G24    30.07F WCI  28
POCATELLO, ID  PTSUNNY   25  23  92 W15       30.03F WCI  13
BURLEY         MOSUNNY   31  26  82 W17G25    30.01F WCI  19
EVANSTON, WY   LGT SNOW  22  18  85 W21       29.94S FOG     WCI   6
ROCK SPRINGS   LGT SNOW  20  16  84 SW6       29.90F FOG     WCI  12

$$


USA.gov is the U.S. government's official web portal to all federal, state and local government web resources and services.